• In Hungary
  • List of Countries
  • For 7 days
  • Water Temperature
  • Satellite Maps
  • Weather Map
  • News
  • Weather Widgets
  • user-avatar
    Login

    Hourly Weather Ermakov

    Today, 21 May, Monday

    Time Temperature Precipitation Wind Pressure Humidity
    00:00 +19°C° 0.9 mm 2 mps 750 mmHg 82%
    01:00 +19°C° 1 mm 2 mps 750 mmHg 82%
    02:00 +19°C° 1 mm 2 mps 750 mmHg 83%
    03:00 +19°C° 1 mm 1 mps 750 mmHg 84%
    04:00 +20°C° 0.6 mm 1 mps 750 mmHg 83%
    05:00 +20°C° 0.6 mm 1 mps 750 mmHg 83%
    06:00 +20°C° 0.6 mm 1 mps 750 mmHg 82%
    07:00 +21°C° 0.2 mm 1 mps 751 mmHg 77%
    08:00 +22°C° 0.2 mm 1 mps 751 mmHg 73%
    09:00 +23°C° 0.2 mm 1 mps 751 mmHg 68%
    10:00 +24°C° 0.1 mm 1 mps 751 mmHg 66%
    11:00 +25°C° 0.1 mm 1 mps 752 mmHg 65%
    12:00 +25°C° 0.1 mm 1 mps 752 mmHg 63%
    13:00 +25°C° 0.3 mm 1 mps 752 mmHg 63%
    14:00 +26°C° 0.3 mm 1 mps 752 mmHg 62%
    15:00 +26°C° 0.3 mm 1 mps 752 mmHg 62%
    16:00 +26°C° 0.4 mm 1 mps 752 mmHg 63%
    17:00 +25°C° 0.4 mm 1 mps 752 mmHg 65%
    18:00 +25°C° 0.4 mm 1 mps 752 mmHg 67%
    19:00 +24°C° 0 mm 1 mps 752 mmHg 70%
    20:00 +23°C° 0 mm 1 mps 752 mmHg 73%
    21:00 +21°C° 0 mm 1 mps 752 mmHg 76%
    22:00 +21°C° 0 mm 1 mps 753 mmHg 78%
    23:00 +20°C° 0 mm 1 mps 753 mmHg 80%

    Tomorrow, 22 May, Tuesday

    Time Temperature Precipitation Wind Pressure Humidity
    00:00 +20°C° 0 mm 1 mps 753 mmHg 82%
    01:00 +19°C° 0 mm 1 mps 753 mmHg 84%
    02:00 +19°C° 0 mm 1 mps 753 mmHg 86%
    03:00 +19°C° 0 mm 1 mps 753 mmHg 88%
    04:00 +19°C° 0 mm 1 mps 753 mmHg 87%
    05:00 +18°C° 0 mm 2 mps 753 mmHg 86%
    06:00 +19°C° 0 mm 2 mps 754 mmHg 85%
    07:00 +21°C° 0 mm 2 mps 754 mmHg 78%
    08:00 +23°C° 0 mm 2 mps 754 mmHg 71%
    09:00 +25°C° 0 mm 2 mps 754 mmHg 64%
    10:00 +26°C° 0 mm 2 mps 754 mmHg 59%
    11:00 +28°C° 0 mm 2 mps 754 mmHg 54%
    12:00 +29°C° 0 mm 2 mps 754 mmHg 49%
    13:00 +29°C° 0 mm 2 mps 754 mmHg 46%
    14:00 +30°C° 0 mm 3 mps 754 mmHg 44%
    15:00 +31°C° 0 mm 3 mps 754 mmHg 42%
    16:00 +30°C° 0 mm 3 mps 754 mmHg 45%
    17:00 +30°C° 0 mm 3 mps 754 mmHg 48%
    18:00 +29°C° 0 mm 3 mps 754 mmHg 51%
    19:00 +27°C° 0 mm 3 mps 754 mmHg 51%
    20:00 +26°C° 0 mm 3 mps 754 mmHg 51%
    21:00 +23°C° 0 mm 4 mps 754 mmHg 50%
    22:00 +22°C° 0 mm 4 mps 754 mmHg 48%
    23:00 +22°C° 0 mm 4 mps 754 mmHg 45%

    Day after tomorrow, 23 May, Wednesday

    Time Temperature Precipitation Wind Pressure Humidity
    00:00 +21°C° 0 mm 4 mps 754 mmHg 43%
    01:00 +21°C° 0 mm 4 mps 754 mmHg 45%
    02:00 +20°C° 0 mm 3 mps 754 mmHg 47%
    03:00 +20°C° 0 mm 3 mps 754 mmHg 49%
    04:00 +20°C° 0 mm 3 mps 754 mmHg 50%
    05:00 +20°C° 0 mm 4 mps 754 mmHg 51%
    06:00 +20°C° 0 mm 4 mps 754 mmHg 52%
    07:00 +22°C° 0 mm 4 mps 754 mmHg 49%
    08:00 +25°C° 0 mm 5 mps 754 mmHg 47%
    09:00 +27°C° 0 mm 5 mps 755 mmHg 45%
    10:00 +28°C° 0 mm 6 mps 754 mmHg 43%
    11:00 +30°C° 0 mm 6 mps 754 mmHg 40%
    12:00 +32°C° 0 mm 7 mps 754 mmHg 38%
    13:00 +33°C° 0 mm 6 mps 754 mmHg 36%
    14:00 +33°C° 0 mm 6 mps 753 mmHg 34%
    15:00 +34°C° 0 mm 6 mps 753 mmHg 31%
    16:00 +33°C° 0 mm 5 mps 752 mmHg 35%
    17:00 +33°C° 0 mm 5 mps 752 mmHg 39%
    18:00 +32°C° 0 mm 4 mps 751 mmHg 42%
    19:00 +29°C° 0 mm 4 mps 752 mmHg 41%
    20:00 +27°C° 0 mm 5 mps 752 mmHg 39%
    21:00 +26°C° 0 mm 5 mps 752 mmHg 38%
    22:00 +25°C° 0 mm 5 mps 752 mmHg 35%
    23:00 +23°C° 0 mm 5 mps 751 mmHg 33%

    24 May, Thursday

    Time Temperature Precipitation Wind Pressure Humidity
    00:00 +22°C° 0 mm 5 mps 751 mmHg 31%
    01:00 +21°C° 0 mm 4 mps 751 mmHg 32%
    02:00 +20°C° 0 mm 4 mps 751 mmHg 33%
    03:00 +19°C° 0 mm 4 mps 751 mmHg 34%
    04:00 +19°C° 0 mm 4 mps 751 mmHg 41%
    05:00 +18°C° 0 mm 3 mps 751 mmHg 48%
    06:00 +18°C° 0 mm 3 mps 751 mmHg 54%
    07:00 +20°C° 0 mm 3 mps 751 mmHg 51%
    08:00 +23°C° 0 mm 4 mps 750 mmHg 48%
    09:00 +26°C° 0 mm 4 mps 750 mmHg 45%
    10:00 +28°C° 0 mm 5 mps 750 mmHg 41%
    11:00 +29°C° 0 mm 5 mps 750 mmHg 37%
    12:00 +32°C° 0 mm 5 mps 749 mmHg 33%
    13:00 +32°C° 0 mm 5 mps 749 mmHg 32%
    14:00 +33°C° 0 mm 5 mps 748 mmHg 30%
    15:00 +33°C° 0 mm 5 mps 748 mmHg 29%
    16:00 +33°C° 0 mm 4 mps 747 mmHg 33%
    17:00 +31°C° 0 mm 3 mps 747 mmHg 37%
    18:00 +31°C° 0 mm 2 mps 747 mmHg 41%
    19:00 +29°C° 0 mm 3 mps 747 mmHg 42%
    20:00 +27°C° 0 mm 4 mps 747 mmHg 42%
    21:00 +25°C° 0 mm 4 mps 747 mmHg 43%
    22:00 +23°C° 0 mm 4 mps 747 mmHg 44%
    23:00 +22°C° 0 mm 4 mps 747 mmHg 44%

    25 May, Friday

    Time Temperature Precipitation Wind Pressure Humidity
    00:00 +22°C° 0 mm 5 mps 747 mmHg 45%
    01:00 +21°C° 0 mm 4 mps 747 mmHg 48%
    02:00 +20°C° 0 mm 4 mps 747 mmHg 50%
    03:00 +19°C° 0 mm 4 mps 747 mmHg 53%
    04:00 +19°C° 0 mm 4 mps 747 mmHg 56%
    05:00 +19°C° 0 mm 3 mps 747 mmHg 59%
    06:00 +19°C° 0 mm 3 mps 747 mmHg 62%
    07:00 +20°C° 0 mm 3 mps 747 mmHg 58%
    08:00 +22°C° 0 mm 4 mps 747 mmHg 54%
    09:00 +25°C° 0 mm 4 mps 748 mmHg 51%
    10:00 +26°C° 0 mm 4 mps 748 mmHg 47%
    11:00 +27°C° 0 mm 4 mps 748 mmHg 43%
    12:00 +28°C° 0 mm 5 mps 748 mmHg 40%
    13:00 +29°C° 0 mm 5 mps 748 mmHg 38%
    14:00 +29°C° 0 mm 5 mps 747 mmHg 37%
    15:00 +30°C° 0 mm 5 mps 747 mmHg 35%
    16:00 +29°C° 0 mm 5 mps 747 mmHg 38%
    17:00 +28°C° 0 mm 5 mps 747 mmHg 41%
    18:00 +27°C° 0 mm 5 mps 747 mmHg 44%
    19:00 +26°C° 0 mm 6 mps 748 mmHg 44%
    20:00 +26°C° 0 mm 8 mps 748 mmHg 45%
    21:00 +24°C° 0 mm 9 mps 749 mmHg 45%
    22:00 +24°C° 0 mm 9 mps 749 mmHg 50%
    23:00 +23°C° 0 mm 9 mps 750 mmHg 55%

    26 May, Saturday

    Time Temperature Precipitation Wind Pressure Humidity
    00:00 +22°C° 0 mm 9 mps 750 mmHg 59%
    01:00 +21°C° 0 mm 9 mps 751 mmHg 61%
    02:00 +19°C° 0 mm 9 mps 751 mmHg 64%
    03:00 +17°C° 0 mm 9 mps 752 mmHg 66%
    04:00 +16°C° 0 mm 9 mps 752 mmHg 64%
    05:00 +15°C° 0 mm 9 mps 753 mmHg 63%
    06:00 +13°C° 0 mm 9 mps 753 mmHg 61%
    07:00 +15°C° 0 mm 9 mps 754 mmHg 58%
    08:00 +16°C° 0 mm 9 mps 754 mmHg 55%
    09:00 +17°C° 0 mm 9 mps 755 mmHg 51%
    10:00 +18°C° 0 mm 9 mps 755 mmHg 48%
    11:00 +19°C° 0 mm 9 mps 755 mmHg 45%
    12:00 +21°C° 0 mm 9 mps 755 mmHg 42%
    13:00 +22°C° 0 mm 9 mps 755 mmHg 41%
    14:00 +23°C° 0 mm 9 mps 756 mmHg 39%
    15:00 +23°C° 0 mm 9 mps 756 mmHg 38%
    16:00 +22°C° 0 mm 8 mps 756 mmHg 40%
    17:00 +22°C° 0 mm 7 mps 756 mmHg 42%
    18:00 +21°C° 0 mm 6 mps 756 mmHg 45%
    19:00 +20°C° 0 mm 7 mps 756 mmHg 43%
    20:00 +18°C° 0 mm 7 mps 757 mmHg 42%
    21:00 +17°C° 0 mm 7 mps 757 mmHg 40%
    22:00 +16°C° 0 mm 7 mps 757 mmHg 39%
    23:00 +16°C° 0 mm 7 mps 757 mmHg 39%
    Show more